[[{"header":{"parameterUnit":"m.s-1","parameterCategory":2,"la1":30.2991,"la2":30.254,"lo1":-89.0895,"lo2":-89.0444,"dy":0.0017,"dx":0.0017,"nx":28,"ny":28,"refTime":"2025-11-06T03:00:00:Z","depth":"0","parameterNumber":2,"parameterNumberName":"U-component_of_CURRENTS"},"data":[0,0,0,0,0,0,0,0,0,0,0,0,0,0,0,0,0,0,0,0,0,0,0,0,0,0,0,0,0,0,0,0,0,0,0,0,0,0,0,0,0,0,0,0,0,0,0,0,0,0,0,0,0,0,0,0,0,0,-0.3206,-0.3207,0,-0.3246,-0.3246,-0.3246,-0.3233,-0.3232,-0.3232,-0.3231,-0.3241,-0.3242,-0.3243,0,0,0,0,0,0,0,0,0,0,0,0,0,-0.3112,-0.3114,-0.3206,-0.3207,-0.3208,-0.3246,-0.3246,-0.3246,-0.3233,-0.3232,-0.3232,-0.3231,-0.3241,-0.3242,-0.3243,0,0,0,0,0,0,0,0,0,0,0,0,0,-0.3149,-0.3114,-0.3206,-0.3208,-0.3209,-0.3246,-0.3246,-0.3246,-0.3233,-0.3232,-0.3231,-0.3231,-0.3241,-0.3242,-0.3243,-0.3268,0,0,-0.3247,-0.3247,0,0,0,0,0,0,0,0,-0.3147,-0.3152,-0.3207,-0.3208,-0.3209,-0.3236,-0.3217,-0.3253,-0.3233,-0.3221,-0.3231,-0.323,-0.324,-0.3241,-0.3246,-0.3268,-0.3269,-0.3247,-0.3248,-0.3248,-0.3249,0,0,0,0,0,0,0,-0.3145,-0.3151,-0.3219,-0.3208,-0.3209,-0.3205,-0.3209,-0.3223,-0.3232,-0.3222,-0.3222,-0.3231,-0.3239,-0.3245,-0.3246,-0.3269,-0.3247,-0.3248,-0.3249,-0.3249,-0.326,-0.326,0,0,0,0,0,0,-0.3148,-0.3149,-0.3218,-0.322,-0.3179,-0.3207,-0.3212,-0.3226,-0.3232,-0.3233,-0.3232,-0.3231,-0.3243,-0.3245,-0.3247,-0.3258,-0.3248,-0.3249,-0.325,-0.3261,-0.326,-0.326,0,0,0,0,0,0,-0.3146,-0.3154,-0.3216,-0.3187,-0.3195,-0.321,-0.3226,-0.3227,-0.323,-0.3241,-0.324,-0.3234,-0.3243,-0.3245,-0.3247,-0.3258,-0.325,-0.3251,-0.3261,-0.3261,-0.326,-0.3292,0,0,0,0,0,0,-0.3143,-0.3153,-0.3157,-0.3188,-0.3197,-0.3237,-0.3227,-0.3229,-0.3239,-0.3238,-0.3243,-0.3243,-0.3242,-0.3245,-0.3248,-0.326,-0.3252,-0.3262,-0.3261,-0.326,-0.3291,-0.3292,-0.3293,0,0,0,0,0,-0.314,-0.3153,-0.3157,-0.3165,-0.3205,-0.3238,-0.3242,-0.3247,-0.324,-0.3245,-0.3239,-0.3242,-0.3242,-0.3246,-0.325,-0.3262,-0.3262,-0.3261,-0.326,-0.3291,-0.3292,-0.3293,0,0,0,0,0,0,-0.3109,-0.3154,-0.3159,-0.3183,-0.3208,-0.3236,-0.3241,-0.3249,-0.325,-0.3244,-0.3245,-0.3245,-0.3247,-0.3247,-0.3251,-0.3258,-0.325,-0.325,-0.3272,-0.3273,-0.3274,-0.3282,-0.3253,0,0,0,0,0,-0.3108,-0.3127,-0.3168,-0.3182,-0.3197,-0.3219,-0.323,-0.324,-0.3251,-0.325,-0.3253,-0.3249,-0.3248,-0.3253,-0.3251,-0.3266,-0.3248,-0.3271,-0.3272,-0.3273,-0.328,-0.326,-0.326,-0.3257,-0.3257,-0.3257,0,0,-0.3097,-0.3125,-0.3133,-0.3177,-0.3193,-0.3224,-0.3222,-0.3245,-0.3265,-0.3252,-0.3265,-0.3254,-0.3249,-0.3256,-0.3258,-0.3259,-0.326,-0.3272,-0.3273,-0.3279,-0.3259,-0.3259,-0.326,-0.3256,-0.3256,-0.3256,0,0,-0.3094,-0.3114,-0.3132,-0.3161,-0.3198,-0.3219,-0.3228,-0.326,-0.3265,-0.3283,-0.3269,-0.3261,-0.3272,-0.3268,-0.3268,-0.3274,-0.326,-0.3271,-0.3295,-0.3276,-0.3277,-0.3277,-0.3238,-0.3235,-0.3279,-0.3279,-0.3279,0,-0.3078,-0.3112,-0.314,-0.3172,-0.3195,-0.322,-0.3248,-0.3268,-0.3292,-0.3298,-0.3287,-0.3283,-0.3278,-0.3286,-0.3284,-0.3279,-0.3258,-0.3296,-0.3279,-0.3279,-0.3279,-0.3239,-0.3235,-0.328,-0.328,-0.328,-0.328,0,-0.3095,-0.3125,-0.3138,-0.3189,-0.3218,-0.3243,-0.3286,-0.3304,-0.3311,-0.3326,-0.3327,-0.3314,-0.3311,-0.3307,-0.3302,-0.3301,-0.3281,-0.3279,-0.3281,-0.3281,-0.3239,-0.3234,-0.3282,-0.3282,-0.3281,-0.3281,0,0,-0.3044,-0.3133,-0.3135,-0.3162,-0.3228,-0.325,-0.3294,-0.3333,-0.3351,-0.3361,-0.3373,-0.3365,-0.3352,-0.3349,-0.3336,-0.3325,-0.3299,-0.3308,-0.3306,-0.3278,-0.3241,-0.3152,-0.3137,-0.3297,-0.3297,-0.3296,-0.3206,0,-0.3042,-0.3101,-0.3151,-0.3197,-0.3227,-0.3277,-0.3315,-0.3354,-0.3375,-0.3393,-0.3385,-0.3385,-0.3372,-0.3362,-0.3352,-0.3317,-0.3291,-0.3323,-0.3237,-0.3235,-0.3163,-0.3131,-0.3012,-0.2915,-0.3201,-0.3201,-0.32,0,-0.3029,-0.3075,-0.3123,-0.3202,-0.3219,-0.3251,-0.3305,-0.3345,-0.339,-0.3406,-0.3414,-0.341,-0.3402,-0.3382,-0.3327,-0.3349,-0.3295,-0.3262,-0.3258,-0.3163,-0.3137,-0.2963,-0.2896,-0.2874,-0.3193,-0.3193,-0.3194,0,-0.2957,-0.3047,-0.308,-0.3108,-0.3205,-0.3227,-0.3271,-0.3332,-0.3359,-0.3404,-0.3415,-0.3418,-0.34,-0.336,-0.3298,-0.3312,-0.3223,-0.323,-0.3093,-0.3085,-0.2961,-0.2943,-0.2869,-0.3172,-0.3172,-0.3173,-0.3173,0,-0.2923,-0.2944,-0.3046,-0.3062,-0.3091,-0.3179,-0.3209,-0.326,-0.3326,-0.3345,-0.3401,-0.34,-0.3393,-0.335,-0.3298,-0.3172,-0.3216,-0.3083,-0.3054,-0.2964,-0.2949,-0.2906,-0.2935,-0.3169,-0.317,-0.3171,-0.3171,0,-0.282,-0.2898,-0.2931,-0.3029,-0.3053,-0.3065,-0.3158,-0.3183,-0.3266,-0.3291,-0.3303,-0.3368,-0.3315,-0.3283,-0.3207,-0.3145,-0.2991,-0.2991,-0.2877,-0.2836,-0.2687,-0.2723,-0.2618,-0.2546,-0.2825,-0.2823,-0.282,0,-0.2768,-0.2777,-0.2867,-0.2881,-0.2917,-0.2964,-0.2996,-0.3115,-0.3153,-0.3254,-0.3252,-0.3248,-0.3195,-0.307,-0.2977,-0.2847,-0.2858,-0.2673,-0.2675,-0.2647,-0.2667,-0.27,-0.2651,-0.2516,-0.2511,-0.2507,-0.2504,0,-0.2649,-0.2681,-0.2711,-0.2743,-0.2774,-0.2815,-0.2878,-0.2904,-0.3039,-0.3069,-0.3085,-0.3053,-0.297,-0.2804,-0.2674,-0.2593,-0.2612,-0.2588,-0.259,-0.2437,-0.2437,-0.2364,-0.261,-0.247,-0.2474,-0.2476,-0.2478,-0.2479,-0.2534,-0.2522,-0.2563,-0.2572,-0.2612,-0.2628,-0.261,-0.2702,-0.2726,-0.2743,-0.2839,-0.2754,-0.2678,-0.2477,-0.2398,-0.2253,-0.2335,-0.2193,-0.2242,-0.228,-0.22,-0.2362,-0.2178,-0.2179,-0.2181,-0.2182,-0.2183,0,-0.2377,-0.2383,-0.2391,-0.2402,-0.2373,-0.2453,-0.2495,-0.2456,-0.2424,-0.2485,-0.2461,-0.2385,-0.2219,-0.2175,-0.2046,-0.1946,-0.1915,-0.1916,-0.1949,-0.1916,-0.2063,-0.2039,-0.1778,-0.1778,-0.1778,-0.1778,-0.1778,-0.1779,-0.2298,-0.2245,-0.2251,-0.2147,-0.2151,-0.2067,-0.205,-0.2026,-0.2038,-0.1967,-0.1961,-0.1986,-0.1967,-0.2072,-0.1924,-0.1829,-0.1801,-0.1738,-0.1783,-0.1918,-0.1949,-0.1979,-0.1961,-0.1689,-0.1689,-0.1558,-0.1558,-0.1557]},{"header":{"parameterUnit":"m.s-1","parameterCategory":2,"la1":30.2991,"la2":30.254,"lo1":-89.0895,"lo2":-89.0444,"dy":0.0017,"dx":0.0017,"nx":28,"ny":28,"refTime":"2025-11-06T03:00:00:Z","depth":"0","parameterNumber":3,"parameterNumberName":"V-component_of_CURRENTS"},"data":[0,0,0,0,0,0,0,0,0,0,0,0,0,0,0,0,0,0,0,0,0,0,0,0,0,0,0,0,0,0,0,0,0,0,0,0,0,0,0,0,0,0,0,0,0,0,0,0,0,0,0,0,0,0,0,0,0,0,-0.029,-0.0289,0,-0.0188,-0.0187,-0.0185,-0.0105,-0.0105,-0.0104,-0.0104,0.008,0.0085,0.0089,0,0,0,0,0,0,0,0,0,0,0,0,0,-0.0344,-0.0344,-0.029,-0.0289,-0.0288,-0.0188,-0.0187,-0.0185,-0.0105,-0.0105,-0.0104,-0.0103,0.0079,0.0084,0.0089,0,0,0,0,0,0,0,0,0,0,0,0,0,-0.0287,-0.0344,-0.029,-0.0238,-0.0232,-0.0188,-0.0186,-0.0184,-0.0106,-0.0105,-0.0104,-0.0103,0.0077,0.0084,0.009,0.0113,0,0,0.011,0.0113,0,0,0,0,0,0,0,0,-0.0291,-0.0285,-0.0247,-0.0242,-0.0235,-0.016,-0.0138,-0.0082,-0.0106,-0.0151,-0.0104,-0.0103,0.0005,0.0018,0.0037,0.0122,0.013,0.0111,0.0115,0.0117,0.0119,0,0,0,0,0,0,0,-0.0295,-0.0289,-0.0248,-0.0246,-0.0239,-0.0195,-0.0186,-0.0127,-0.0076,-0.0147,-0.0142,-0.0134,0.001,0.003,0.0042,0.0132,0.011,0.0116,0.012,0.0123,0.0258,0.0258,0,0,0,0,0,0,-0.0317,-0.0293,-0.0251,-0.0245,-0.0264,-0.0195,-0.0185,-0.0184,-0.0078,-0.0063,-0.0135,-0.0131,0.0019,0.0034,0.0049,0.0089,0.0117,0.0123,0.0127,0.0258,0.0258,0.0257,0,0,0,0,0,0,-0.0318,-0.0314,-0.0255,-0.0268,-0.0257,-0.0196,-0.0194,-0.0182,-0.016,-0.007,-0.0052,-0.0126,0.002,0.004,0.0092,0.0097,0.0126,0.0132,0.0259,0.0258,0.0258,0.0166,0,0,0,0,0,0,-0.032,-0.0316,-0.0322,-0.027,-0.0257,-0.024,-0.0195,-0.0181,-0.0158,-0.0151,-0.0056,-0.0038,0.0022,0.0082,0.0098,0.0106,0.0137,0.0259,0.0258,0.0258,0.0169,0.0162,0.0156,0,0,0,0,0,-0.0323,-0.0341,-0.0323,-0.0318,-0.0269,-0.0241,-0.0231,-0.0182,-0.0159,-0.0157,-0.0095,-0.0041,0.009,0.0086,0.0106,0.0116,0.0259,0.0259,0.0258,0.0172,0.0164,0.0156,0,0,0,0,0,0,-0.0368,-0.0334,-0.0312,-0.0319,-0.0287,-0.0229,-0.0224,-0.0191,-0.0141,-0.0133,-0.0047,-0.0025,0.0021,0.0077,0.0071,0.0152,0.0185,0.0188,0.0113,0.0105,0.0099,0.0081,0.0143,0,0,0,0,0,-0.0383,-0.0386,-0.0343,-0.0348,-0.0337,-0.0282,-0.0264,-0.0233,-0.0184,-0.0161,-0.0096,-0.0026,0.0033,0.0074,0.0129,0.0176,0.0238,0.0195,0.0189,0.0183,0.0181,0.0271,0.0272,0.0255,0.0255,0.0255,0,0,-0.0401,-0.0384,-0.0384,-0.0358,-0.0327,-0.0322,-0.0269,-0.0252,-0.0239,-0.0148,-0.0111,-0.0051,0.0036,0.0084,0.0111,0.0134,0.0219,0.0182,0.0176,0.0178,0.027,0.0272,0.0274,0.0254,0.0255,0.0255,0,0,-0.0447,-0.0425,-0.0445,-0.0426,-0.0394,-0.0357,-0.0358,-0.0306,-0.0273,-0.0236,-0.0167,-0.0106,-0.002,0.0049,0.0095,0.0088,0.0173,0.0104,0.0071,0.0157,0.0159,0.0162,0.0235,0.0245,0.0111,0.0111,0.0111,0,-0.0472,-0.0488,-0.0446,-0.0459,-0.0447,-0.038,-0.0394,-0.0353,-0.0289,-0.0256,-0.0238,-0.0101,-0.0032,0.0047,0.004,0.0075,0.0129,0.0092,0.0149,0.0153,0.0157,0.0232,0.0244,0.0106,0.0107,0.0107,0.0108,0,-0.053,-0.0539,-0.055,-0.0541,-0.0522,-0.0524,-0.0466,-0.0437,-0.039,-0.0335,-0.0259,-0.0168,-0.0081,-0.0051,-0.0007,0.006,0.0089,0.0121,0.0166,0.0154,0.0232,0.0247,0.01,0.0101,0.0103,0.0104,0,0,-0.059,-0.0593,-0.0594,-0.0603,-0.0566,-0.0557,-0.0531,-0.0479,-0.0447,-0.0376,-0.0325,-0.0225,-0.0167,-0.0113,-0.004,0.0036,0.0109,0.008,0.0087,0.0147,0.029,0.034,0.0362,0.0148,0.0151,0.0152,0.0329,0,-0.0646,-0.0697,-0.0671,-0.0699,-0.0717,-0.0647,-0.0626,-0.0565,-0.0492,-0.0425,-0.0311,-0.024,-0.019,-0.0149,-0.0068,0.0069,0.0144,0.0057,0.0298,0.0305,0.0348,0.0379,0.0417,0.0581,0.0344,0.0346,0.0348,0,-0.0709,-0.0734,-0.0784,-0.0776,-0.0775,-0.0774,-0.0711,-0.0682,-0.0564,-0.0505,-0.0406,-0.0314,-0.019,-0.0155,0.0073,0.0014,0.0133,0.0238,0.0248,0.0339,0.0383,0.0558,0.0617,0.0773,0.0371,0.037,0.0368,0,-0.0777,-0.0804,-0.0847,-0.0848,-0.0831,-0.0827,-0.0803,-0.0707,-0.0669,-0.0549,-0.05,-0.0343,-0.0247,-0.0088,0.0126,0.01,0.0382,0.0384,0.0543,0.0548,0.0651,0.0661,0.0888,0.0536,0.0536,0.0535,0.0535,0,-0.0848,-0.0877,-0.0885,-0.0911,-0.0942,-0.0898,-0.0891,-0.0835,-0.0744,-0.0683,-0.0552,-0.0456,-0.0226,-0.0036,0.0127,0.0395,0.0394,0.0549,0.0605,0.0618,0.0623,0.0821,0.0869,0.0542,0.054,0.0539,0.0538,0,-0.0915,-0.0923,-0.0973,-0.098,-0.0982,-0.1003,-0.0971,-0.0952,-0.0856,-0.0772,-0.0739,-0.0516,-0.0257,-0.0018,0.0284,0.0419,0.0764,0.0741,0.0734,0.0785,0.1044,0.1084,0.1367,0.1467,0.0934,0.0936,0.0938,0,-0.0954,-0.0992,-0.1035,-0.1069,-0.1077,-0.1095,-0.11,-0.1023,-0.099,-0.0793,-0.0754,-0.0486,-0.0268,0.0188,0.0481,0.0797,0.0908,0.0997,0.0954,0.1083,0.117,0.1192,0.1257,0.1057,0.106,0.1062,0.1064,0,-0.1023,-0.1038,-0.1079,-0.1157,-0.1188,-0.121,-0.1205,-0.1196,-0.1072,-0.0954,-0.0738,-0.0542,-0.009,0.0312,0.0714,0.0897,0.1113,0.1053,0.1211,0.1307,0.1328,0.1442,0.09,0.1085,0.1083,0.1081,0.108,0.1079,-0.1059,-0.1109,-0.1167,-0.1232,-0.1273,-0.1303,-0.1303,-0.1249,-0.1156,-0.0937,-0.0744,-0.0388,0.0149,0.0734,0.0944,0.1364,0.1312,0.1475,0.152,0.1537,0.1617,0.1107,0.1334,0.1333,0.1333,0.1332,0.1332,0,-0.1097,-0.1156,-0.1234,-0.1305,-0.1356,-0.1356,-0.1347,-0.1286,-0.1151,-0.0899,-0.0638,0.0003,0.0531,0.1006,0.1583,0.1809,0.1852,0.1924,0.1973,0.2022,0.1611,0.1598,0.1863,0.1863,0.1863,0.1863,0.1862,0.1862,-0.1119,-0.1203,-0.1249,-0.1347,-0.1393,-0.1407,-0.1389,-0.1243,-0.1052,-0.0604,-0.021,0.0103,0.0762,0.1647,0.2176,0.2231,0.2415,0.2409,0.2507,0.2214,0.2175,0.2137,0.214,0.2515,0.2515,0.2908,0.2912,0.2915]}],[{"header":{"parameterUnit":"m.s-1","parameterCategory":2,"la1":30.2991,"la2":30.254,"lo1":-89.0895,"lo2":-89.0444,"dy":0.0017,"dx":0.0017,"nx":28,"ny":28,"refTime":"2025-11-06T03:00:00:Z","depth":"2","parameterNumber":2,"parameterNumberName":"U-component_of_CURRENTS"},"data":[0,0,0,0,0,0,0,0,0,0,0,0,0,0,0,0,0,0,0,0,0,0,0,0,0,0,0,0,0,0,0,0,0,0,0,0,0,0,0,0,0,0,0,0,0,0,0,0,0,0,0,0,0,0,0,0,0,0,-0.2828,-0.2829,0,-0.2874,-0.2875,-0.2875,-0.2876,-0.2876,-0.2876,-0.2875,-0.2896,-0.2897,-0.2898,0,0,0,0,0,0,0,0,0,0,0,0,0,-0.2734,-0.2735,-0.2828,-0.2829,-0.283,-0.2874,-0.2875,-0.2875,-0.2876,-0.2876,-0.2876,-0.2875,-0.2896,-0.2897,-0.2898,0,0,0,0,0,0,0,0,0,0,0,0,0,-0.2774,-0.2736,-0.2828,-0.2838,-0.2839,-0.2874,-0.2875,-0.2875,-0.2876,-0.2876,-0.2876,-0.2875,-0.2896,-0.2897,-0.2898,-0.2915,0,0,-0.2902,-0.2903,0,0,0,0,0,0,0,0,-0.2772,-0.2777,-0.2836,-0.2837,-0.2839,-0.2872,-0.2849,-0.2888,-0.2877,-0.2859,-0.2875,-0.2875,-0.2888,-0.289,-0.2896,-0.2916,-0.2917,-0.2902,-0.2903,-0.2904,-0.2904,0,0,0,0,0,0,0,-0.2769,-0.2775,-0.2844,-0.2837,-0.2839,-0.2838,-0.2843,-0.2856,-0.2873,-0.2861,-0.2862,-0.2872,-0.2888,-0.2895,-0.2896,-0.2918,-0.2902,-0.2903,-0.2904,-0.2905,-0.2926,-0.2926,0,0,0,0,0,0,-0.277,-0.2773,-0.2842,-0.2845,-0.2807,-0.284,-0.2845,-0.2859,-0.2874,-0.2876,-0.2872,-0.2872,-0.2893,-0.2895,-0.2897,-0.2918,-0.2904,-0.2905,-0.2906,-0.2926,-0.2926,-0.2926,0,0,0,0,0,0,-0.2768,-0.2776,-0.284,-0.2812,-0.282,-0.2842,-0.2858,-0.2861,-0.2871,-0.2883,-0.2884,-0.2881,-0.2893,-0.2895,-0.2907,-0.2919,-0.2905,-0.2906,-0.2926,-0.2926,-0.2926,-0.2961,0,0,0,0,0,0,-0.2765,-0.2775,-0.2781,-0.2812,-0.2822,-0.2864,-0.2859,-0.2862,-0.2879,-0.2879,-0.2891,-0.2892,-0.2892,-0.2905,-0.2908,-0.2921,-0.2907,-0.2927,-0.2926,-0.2926,-0.296,-0.2961,-0.2963,0,0,0,0,0,-0.2762,-0.2775,-0.2781,-0.279,-0.2832,-0.2865,-0.2869,-0.2881,-0.288,-0.2888,-0.289,-0.2892,-0.2904,-0.2906,-0.291,-0.2923,-0.2927,-0.2926,-0.2926,-0.2959,-0.2961,-0.2963,0,0,0,0,0,0,-0.2735,-0.2778,-0.2785,-0.281,-0.2836,-0.2866,-0.2874,-0.2886,-0.2896,-0.2893,-0.2897,-0.2899,-0.2909,-0.2909,-0.2911,-0.2924,-0.2913,-0.2913,-0.2937,-0.2939,-0.294,-0.2944,-0.2909,0,0,0,0,0,-0.2734,-0.2753,-0.2793,-0.281,-0.2825,-0.285,-0.2864,-0.2878,-0.2894,-0.2898,-0.2906,-0.2908,-0.2911,-0.2919,-0.2919,-0.2938,-0.292,-0.2943,-0.2945,-0.2947,-0.295,-0.2933,-0.2934,-0.2924,-0.2924,-0.2924,0,0,-0.2725,-0.2752,-0.2762,-0.2805,-0.2823,-0.2855,-0.2857,-0.2884,-0.2906,-0.2899,-0.2921,-0.2916,-0.2914,-0.2926,-0.2931,-0.2931,-0.2937,-0.2946,-0.2948,-0.295,-0.2933,-0.2934,-0.2935,-0.2924,-0.2924,-0.2924,0,0,-0.2724,-0.2746,-0.2765,-0.2794,-0.2833,-0.2855,-0.2866,-0.2902,-0.2911,-0.2937,-0.2928,-0.2929,-0.2945,-0.2943,-0.2945,-0.2956,-0.2942,-0.2956,-0.2979,-0.2963,-0.2964,-0.2964,-0.2934,-0.2932,-0.2963,-0.2963,-0.2963,0,-0.2712,-0.2746,-0.2773,-0.2806,-0.283,-0.2858,-0.2887,-0.2909,-0.2941,-0.295,-0.2945,-0.2954,-0.2952,-0.2964,-0.2965,-0.2963,-0.2945,-0.2976,-0.2966,-0.2967,-0.2967,-0.2935,-0.2932,-0.2964,-0.2964,-0.2964,-0.2964,0,-0.2731,-0.2761,-0.2776,-0.2826,-0.2855,-0.2884,-0.2926,-0.2949,-0.2963,-0.2981,-0.2993,-0.2986,-0.2991,-0.2989,-0.2985,-0.2988,-0.2971,-0.2967,-0.2965,-0.297,-0.2936,-0.2932,-0.2967,-0.2966,-0.2966,-0.2965,0,0,-0.2688,-0.2773,-0.2776,-0.2803,-0.2869,-0.2892,-0.2937,-0.2979,-0.3001,-0.302,-0.3038,-0.3038,-0.3031,-0.3031,-0.3022,-0.3012,-0.2994,-0.2996,-0.2994,-0.2972,-0.2948,-0.2861,-0.2848,-0.2992,-0.2991,-0.2991,-0.2921,0,-0.269,-0.2748,-0.2794,-0.2843,-0.2873,-0.2923,-0.2961,-0.3002,-0.3029,-0.3054,-0.3052,-0.3061,-0.305,-0.3048,-0.3039,-0.3009,-0.2987,-0.3012,-0.294,-0.2938,-0.2866,-0.2842,-0.2648,-0.2562,-0.2917,-0.2916,-0.2916,0,-0.2683,-0.2727,-0.2776,-0.2851,-0.2869,-0.2903,-0.296,-0.3001,-0.3051,-0.3071,-0.3088,-0.309,-0.3088,-0.3069,-0.3024,-0.3042,-0.2996,-0.2966,-0.2962,-0.2867,-0.2843,-0.2615,-0.2542,-0.2909,-0.291,-0.291,-0.2911,0,-0.262,-0.2707,-0.2742,-0.277,-0.2862,-0.2887,-0.2932,-0.2994,-0.3023,-0.3076,-0.3092,-0.3102,-0.3091,-0.3058,-0.3003,-0.3015,-0.2938,-0.2944,-0.2817,-0.281,-0.2622,-0.2599,-0.2894,-0.2894,-0.2894,-0.2894,-0.2894,0,-0.2593,-0.2617,-0.2715,-0.2732,-0.2766,-0.2849,-0.2885,-0.2936,-0.3003,-0.3024,-0.3085,-0.3085,-0.3086,-0.305,-0.3005,-0.2892,-0.2935,-0.2808,-0.2783,-0.2626,-0.2605,-0.2894,-0.2895,-0.2892,-0.2892,-0.2893,-0.2893,0,-0.2503,-0.2576,-0.2612,-0.2708,-0.2733,-0.2751,-0.2842,-0.2868,-0.2952,-0.2981,-0.2996,-0.3056,-0.3013,-0.2991,-0.2925,-0.2867,-0.2787,-0.2731,-0.2542,-0.2496,-0.2671,-0.2674,-0.2587,-0.2583,-0.258,-0.2578,-0.2575,0,-0.2458,-0.247,-0.2559,-0.2574,-0.2611,-0.2663,-0.2693,-0.2809,-0.2843,-0.2943,-0.2939,-0.2944,-0.2892,-0.2783,-0.2696,-0.2585,-0.2677,-0.2352,-0.2337,-0.2653,-0.2638,-0.2647,-0.2654,-0.2096,-0.209,-0.2086,-0.2082,0,-0.2353,-0.2386,-0.2417,-0.2451,-0.2483,-0.2522,-0.2583,-0.2602,-0.273,-0.2757,-0.2765,-0.2735,-0.2665,-0.2468,-0.2362,-0.2281,-0.2363,-0.2248,-0.2607,-0.2215,-0.2187,-0.2174,-0.2198,-0.2038,-0.2042,-0.2046,-0.2048,-0.205,-0.2252,-0.2243,-0.2284,-0.2296,-0.2335,-0.2343,-0.2317,-0.2394,-0.2406,-0.2406,-0.2506,-0.2394,-0.2375,-0.2097,-0.1985,-0.1911,-0.2069,-0.1981,-0.1997,-0.2018,-0.1984,-0.1953,-0.1753,-0.1756,-0.1758,-0.176,-0.1762,0,-0.211,-0.2117,-0.2125,-0.2136,-0.2106,-0.2184,-0.2205,-0.2144,-0.2086,-0.2127,-0.2094,-0.1856,-0.1736,-0.1729,-0.1544,-0.1506,-0.1501,-0.1449,-0.1449,-0.1492,-0.1531,-0.1474,-0.1107,-0.1105,-0.1103,-0.1102,0,0,-0.2039,-0.199,-0.1992,-0.1892,-0.1896,-0.1797,-0.1765,-0.1692,-0.1672,-0.1551,-0.1503,-0.1631,-0.1665,-0.1385,-0.1322,-0.1185,-0.1324,-0.1124,-0.1648,-0.169,-0.1727,-0.1834,-0.1794,0,0,0,0,0]},{"header":{"parameterUnit":"m.s-1","parameterCategory":2,"la1":30.2991,"la2":30.254,"lo1":-89.0895,"lo2":-89.0444,"dy":0.0017,"dx":0.0017,"nx":28,"ny":28,"refTime":"2025-11-06T03:00:00:Z","depth":"2","parameterNumber":3,"parameterNumberName":"V-component_of_CURRENTS"},"data":[0,0,0,0,0,0,0,0,0,0,0,0,0,0,0,0,0,0,0,0,0,0,0,0,0,0,0,0,0,0,0,0,0,0,0,0,0,0,0,0,0,0,0,0,0,0,0,0,0,0,0,0,0,0,0,0,0,0,-0.0361,-0.036,0,-0.0273,-0.0272,-0.0271,-0.0202,-0.0202,-0.0201,-0.0201,-0.0045,-0.0042,-0.0038,0,0,0,0,0,0,0,0,0,0,0,0,0,-0.0401,-0.0401,-0.0361,-0.036,-0.0359,-0.0273,-0.0272,-0.0271,-0.0202,-0.0202,-0.0201,-0.0201,-0.0046,-0.0042,-0.0038,0,0,0,0,0,0,0,0,0,0,0,0,0,-0.0354,-0.04,-0.0361,-0.0316,-0.0311,-0.0274,-0.0272,-0.027,-0.0202,-0.0202,-0.0201,-0.02,-0.0048,-0.0042,-0.0037,-0.0017,0,0,-0.002,-0.0018,0,0,0,0,0,0,0,0,-0.0356,-0.0352,-0.0323,-0.0319,-0.0314,-0.025,-0.0229,-0.0183,-0.0203,-0.0242,-0.0201,-0.02,-0.0109,-0.0098,-0.0082,-0.001,-0.0003,-0.002,-0.0016,-0.0014,-0.0012,0,0,0,0,0,0,0,-0.036,-0.0355,-0.0324,-0.0323,-0.0317,-0.0277,-0.027,-0.022,-0.0178,-0.0238,-0.0233,-0.0227,-0.0105,-0.0087,-0.0077,-0.0001,-0.002,-0.0015,-0.0011,-0.0009,0.0109,0.0108,0,0,0,0,0,0,-0.0379,-0.0359,-0.0327,-0.0322,-0.0336,-0.0277,-0.0269,-0.0269,-0.018,-0.0166,-0.0228,-0.0224,-0.0097,-0.0084,-0.0072,-0.0032,-0.0014,-0.0009,-0.0005,0.0109,0.0108,0.0108,0,0,0,0,0,0,-0.038,-0.0377,-0.033,-0.0339,-0.0331,-0.0278,-0.0278,-0.0268,-0.0249,-0.0173,-0.0158,-0.022,-0.0096,-0.0079,-0.0033,-0.0026,-0.0006,-0.0001,0.0109,0.0109,0.0108,0.0041,0,0,0,0,0,0,-0.0382,-0.0379,-0.0385,-0.0341,-0.0331,-0.0316,-0.0279,-0.0267,-0.0247,-0.0241,-0.0161,-0.0145,-0.0094,-0.0042,-0.0028,-0.0018,0.0003,0.0109,0.0109,0.0108,0.0043,0.0038,0.0034,0,0,0,0,0,-0.0384,-0.04,-0.0386,-0.0382,-0.0342,-0.0317,-0.0308,-0.0266,-0.0248,-0.0245,-0.0192,-0.0148,-0.0034,-0.0038,-0.0021,-0.0009,0.0109,0.0109,0.0109,0.0045,0.0039,0.0034,0,0,0,0,0,0,-0.0421,-0.0394,-0.0377,-0.0384,-0.0356,-0.0306,-0.0302,-0.0274,-0.0231,-0.0224,-0.0151,-0.0133,-0.0091,-0.0045,-0.0051,0.0022,0.0046,0.0048,-0.0008,-0.0013,-0.0018,-0.0034,0.0008,0,0,0,0,0,-0.0434,-0.0438,-0.0402,-0.0407,-0.0398,-0.0351,-0.0336,-0.0309,-0.0267,-0.0247,-0.0191,-0.0131,-0.008,-0.0045,0.0002,0.0045,0.0096,0.0064,0.0059,0.0055,0.0052,0.0132,0.0134,0.0107,0.0107,0.0107,0,0,-0.045,-0.0436,-0.0437,-0.0415,-0.0389,-0.0383,-0.034,-0.0325,-0.0311,-0.0236,-0.0202,-0.015,-0.0076,-0.0032,-0.0008,0.001,0.0088,0.0054,0.005,0.005,0.0132,0.0134,0.0137,0.0107,0.0107,0.0107,0,0,-0.0487,-0.0471,-0.0488,-0.047,-0.0443,-0.0412,-0.0412,-0.0367,-0.0338,-0.0304,-0.0246,-0.019,-0.0117,-0.0055,-0.0015,-0.0016,0.0052,-0.0004,-0.0027,0.005,0.0053,0.0056,0.0117,0.0126,0.0003,0.0003,0.0003,0,-0.0508,-0.0522,-0.0488,-0.0497,-0.0488,-0.0431,-0.0442,-0.0404,-0.0348,-0.032,-0.0304,-0.0185,-0.0124,-0.0051,-0.0053,-0.0024,0.002,-0.0012,0.0044,0.0049,0.0053,0.0115,0.0126,0.0,0.0,0.0001,0.0001,0,-0.0555,-0.0563,-0.0572,-0.0563,-0.0547,-0.0548,-0.0497,-0.0471,-0.043,-0.0382,-0.0315,-0.0232,-0.0156,-0.0128,-0.0089,-0.0025,-0.0006,0.0021,0.0057,0.0052,0.0117,0.013,-0.0005,-0.0004,-0.0003,-0.0002,0,0,-0.0607,-0.0608,-0.0609,-0.0618,-0.0583,-0.0577,-0.055,-0.0504,-0.0479,-0.0411,-0.0367,-0.0273,-0.0222,-0.0175,-0.0109,-0.004,0.0029,-0.0005,0.0,0.0051,0.0186,0.0213,0.0231,0.0063,0.0065,0.0066,0.0215,0,-0.0653,-0.0697,-0.0672,-0.0696,-0.0713,-0.0652,-0.0632,-0.0578,-0.0515,-0.0456,-0.035,-0.0289,-0.0239,-0.0204,-0.0127,-0.001,0.0061,-0.0014,0.0186,0.0192,0.0215,0.0246,0.0209,0.0339,0.0228,0.023,0.0232,0,-0.0706,-0.0728,-0.0772,-0.0768,-0.0767,-0.0765,-0.0716,-0.0688,-0.0583,-0.0532,-0.0441,-0.0358,-0.0241,-0.0206,-0.0002,-0.0056,0.0052,0.0143,0.0152,0.0211,0.0244,0.0329,0.0367,0.0254,0.0252,0.0251,0.0249,0,-0.077,-0.0792,-0.0831,-0.0832,-0.0818,-0.0816,-0.0796,-0.0714,-0.0684,-0.0575,-0.0536,-0.0388,-0.0305,-0.0156,0.0033,0.0016,0.0256,0.0265,0.0394,0.0397,0.0423,0.0424,0.0405,0.0405,0.0405,0.0405,0.0404,0,-0.0833,-0.0861,-0.0868,-0.0893,-0.0926,-0.0885,-0.0886,-0.0838,-0.0759,-0.0715,-0.0584,-0.0508,-0.029,-0.0124,0.003,0.0259,0.0264,0.0399,0.0445,0.0396,0.0394,0.0364,0.0357,0.041,0.0409,0.0408,0.0407,0,-0.0897,-0.0903,-0.0951,-0.0959,-0.0963,-0.0986,-0.0965,-0.0955,-0.0871,-0.0808,-0.0778,-0.0579,-0.0356,-0.0134,0.0137,0.0264,0.0471,0.0547,0.0468,0.0502,0.0555,0.0543,0.0702,0.0705,0.0707,0.0709,0.071,0,-0.0935,-0.097,-0.1013,-0.1047,-0.1057,-0.1078,-0.1089,-0.1024,-0.1001,-0.0844,-0.0815,-0.0586,-0.0405,-0.0001,0.0267,0.0556,0.0551,0.0671,0.0638,0.0561,0.059,0.0574,0.056,0.0645,0.0645,0.0646,0.0647,0,-0.1002,-0.1017,-0.1057,-0.1135,-0.1169,-0.1197,-0.12,-0.1199,-0.1099,-0.101,-0.0842,-0.0681,-0.0288,0.0039,0.0404,0.0563,0.0619,0.0693,0.0669,0.0565,0.0516,0.0541,0.0527,0.0652,0.0652,0.0651,0.0651,0.0651,-0.1041,-0.109,-0.1146,-0.1212,-0.1258,-0.1295,-0.1305,-0.1268,-0.1205,-0.1038,-0.0878,-0.0591,-0.0295,0.0243,0.0487,0.0718,0.0716,0.0762,0.0757,0.0751,0.0707,0.0664,0.0819,0.082,0.082,0.082,0.0821,0,-0.1086,-0.114,-0.1217,-0.1291,-0.1348,-0.135,-0.1356,-0.1319,-0.1227,-0.1033,-0.0828,-0.0465,-0.0091,0.0224,0.0592,0.0795,0.0769,0.082,0.074,0.0734,0.0729,0.068,0.0788,0.0788,0.0789,0.0789,0,0,-0.111,-0.1193,-0.1235,-0.134,-0.139,-0.1422,-0.1416,-0.1326,-0.1181,-0.0971,-0.074,-0.0445,-0.0065,0.018,0.0435,0.0625,0.0621,0.064,0.0646,0.0514,0.0506,0.0679,0.0596,0,0,0,0,0]}],[{"header":{"parameterUnit":"m.s-1","parameterCategory":2,"la1":30.2991,"la2":30.254,"lo1":-89.0895,"lo2":-89.0444,"dy":0.0017,"dx":0.0017,"nx":28,"ny":28,"refTime":"2025-11-06T03:00:00:Z","depth":"4","parameterNumber":2,"parameterNumberName":"U-component_of_CURRENTS"},"data":[0,0,0,0,0,0,0,0,0,0,0,0,0,0,0,0,0,0,0,0,0,0,0,0,0,0,0,0,0,0,0,0,0,0,0,0,0,0,0,0,0,0,0,0,0,0,0,0,0,0,0,0,0,0,0,0,0,0,-0.1983,-0.1984,0,-0.2069,-0.207,-0.2071,-0.2137,-0.2138,-0.2138,-0.2139,-0.2238,-0.224,-0.2242,0,0,0,0,0,0,0,0,0,0,0,0,0,-0.1864,-0.1866,-0.1983,-0.1984,-0.1985,-0.2069,-0.207,-0.2071,-0.2137,-0.2138,-0.2139,-0.214,-0.2238,-0.224,-0.2242,0,0,0,0,0,0,0,0,0,0,0,0,0,-0.1928,-0.1867,-0.1982,-0.2029,-0.2035,-0.2069,-0.207,-0.2072,-0.2137,-0.2138,-0.2139,-0.214,-0.2237,-0.224,-0.2243,-0.2237,0,0,-0.2251,-0.2252,0,0,0,0,0,0,0,0,-0.1924,-0.1932,-0.2021,-0.2026,-0.2032,-0.2095,-0.2065,-0.2128,-0.2136,-0.2096,-0.2139,-0.2141,-0.2192,-0.2199,-0.2209,-0.2241,-0.2245,-0.2251,-0.2253,-0.2254,-0.2255,0,0,0,0,0,0,0,-0.192,-0.1929,-0.2015,-0.2023,-0.2029,-0.2043,-0.2053,-0.2077,-0.2135,-0.2099,-0.2105,-0.2117,-0.2195,-0.2206,-0.2212,-0.2247,-0.2251,-0.2254,-0.2256,-0.2257,-0.2344,-0.2344,0,0,0,0,0,0,-0.1912,-0.1924,-0.2012,-0.2018,-0.1982,-0.2044,-0.2056,-0.2072,-0.2135,-0.2146,-0.2116,-0.212,-0.2201,-0.2209,-0.2216,-0.2291,-0.2254,-0.2257,-0.2259,-0.2343,-0.2344,-0.2344,0,0,0,0,0,0,-0.191,-0.192,-0.2009,-0.1974,-0.1987,-0.2046,-0.2063,-0.2073,-0.2123,-0.2148,-0.2159,-0.216,-0.2202,-0.2212,-0.2265,-0.2293,-0.2258,-0.2261,-0.2342,-0.2343,-0.2344,-0.2392,0,0,0,0,0,0,-0.1906,-0.1918,-0.1942,-0.1974,-0.1989,-0.2051,-0.2063,-0.2074,-0.2127,-0.2134,-0.2188,-0.2196,-0.2204,-0.2261,-0.2268,-0.2296,-0.2263,-0.2342,-0.2343,-0.2344,-0.2389,-0.2394,-0.2398,0,0,0,0,0,-0.1901,-0.1925,-0.1942,-0.1954,-0.2015,-0.2052,-0.2062,-0.2105,-0.2128,-0.2153,-0.2189,-0.2196,-0.2272,-0.2264,-0.2272,-0.2302,-0.2341,-0.2343,-0.2344,-0.2387,-0.2393,-0.2398,0,0,0,0,0,0,-0.1888,-0.1935,-0.1955,-0.1993,-0.2031,-0.2065,-0.2097,-0.2124,-0.2172,-0.219,-0.2211,-0.2222,-0.2273,-0.2279,-0.2269,-0.2327,-0.2305,-0.2308,-0.2335,-0.2341,-0.2345,-0.2339,-0.2266,0,0,0,0,0,-0.1894,-0.1926,-0.1967,-0.2001,-0.2023,-0.2066,-0.2093,-0.2124,-0.2163,-0.2188,-0.2224,-0.2256,-0.2277,-0.2305,-0.2323,-0.2365,-0.2345,-0.2384,-0.2389,-0.2393,-0.2391,-0.2382,-0.2385,-0.2349,-0.2349,-0.2349,0,0,-0.1898,-0.1929,-0.1949,-0.2001,-0.2035,-0.2073,-0.2086,-0.2138,-0.2177,-0.2189,-0.2261,-0.2276,-0.229,-0.2331,-0.2354,-0.2348,-0.2393,-0.2394,-0.2398,-0.2394,-0.2384,-0.2387,-0.239,-0.235,-0.235,-0.2349,0,0,-0.1911,-0.1952,-0.1981,-0.2017,-0.2074,-0.21,-0.2123,-0.2178,-0.2214,-0.2273,-0.2283,-0.2316,-0.2369,-0.2376,-0.2385,-0.2423,-0.2411,-0.2436,-0.2465,-0.2457,-0.246,-0.2462,-0.2441,-0.2441,-0.2445,-0.2445,-0.2445,0,-0.1919,-0.196,-0.1996,-0.2033,-0.2069,-0.2116,-0.2156,-0.2194,-0.2262,-0.2289,-0.2305,-0.2366,-0.2383,-0.2414,-0.2428,-0.2434,-0.2424,-0.2448,-0.2463,-0.2465,-0.2466,-0.2444,-0.2443,-0.2448,-0.2447,-0.2447,-0.2447,0,-0.1943,-0.1992,-0.2014,-0.2076,-0.2117,-0.2161,-0.2214,-0.2264,-0.2312,-0.2344,-0.24,-0.2418,-0.2451,-0.2461,-0.2463,-0.2485,-0.2472,-0.2464,-0.245,-0.2473,-0.2447,-0.2446,-0.2451,-0.245,-0.2449,-0.2449,0,0,-0.1915,-0.2013,-0.2025,-0.2064,-0.2147,-0.2178,-0.2246,-0.2307,-0.235,-0.241,-0.2455,-0.249,-0.2503,-0.2511,-0.2516,-0.2515,-0.2518,-0.2505,-0.2503,-0.2484,-0.2495,-0.2337,-0.232,-0.252,-0.252,-0.252,-0.2472,0,-0.1927,-0.1998,-0.2049,-0.2123,-0.2162,-0.223,-0.2284,-0.2347,-0.2401,-0.2456,-0.2479,-0.2521,-0.2521,-0.2543,-0.2544,-0.2525,-0.2516,-0.2531,-0.2474,-0.2472,-0.233,-0.2313,-0.252,-0.247,-0.247,-0.247,-0.247,0,-0.1925,-0.1977,-0.2051,-0.2146,-0.217,-0.2225,-0.2316,-0.2372,-0.2449,-0.249,-0.2537,-0.2558,-0.258,-0.257,-0.2551,-0.2565,-0.2534,-0.2511,-0.2509,-0.2341,-0.231,-0.2443,-0.2466,-0.2467,-0.2467,-0.2467,-0.2467,0,-0.1864,-0.1973,-0.2033,-0.2069,-0.2182,-0.2233,-0.2297,-0.2384,-0.2427,-0.2514,-0.2544,-0.2582,-0.2594,-0.2577,-0.254,-0.2554,-0.2496,-0.2505,-0.2329,-0.2318,-0.2458,-0.2456,-0.2474,-0.2474,-0.2474,-0.2474,-0.2474,0,-0.1832,-0.1884,-0.2018,-0.2048,-0.2117,-0.2212,-0.2285,-0.2353,-0.244,-0.2469,-0.2556,-0.2558,-0.2597,-0.2573,-0.2543,-0.2414,-0.2495,-0.2316,-0.2287,-0.2479,-0.248,-0.2456,-0.2455,-0.2472,-0.2473,-0.2473,-0.2473,0,-0.1744,-0.1839,-0.191,-0.2045,-0.2089,-0.2137,-0.2266,-0.2302,-0.2409,-0.2447,-0.2473,-0.2539,-0.2501,-0.2505,-0.2462,-0.2383,-0.2302,-0.2237,-0.2429,-0.2416,-0.2134,-0.2137,-0.2036,-0.203,-0.2024,-0.202,-0.2016,0,-0.1699,-0.173,-0.1881,-0.1921,-0.1987,-0.208,-0.2129,-0.2263,-0.2294,-0.24,-0.2386,-0.2407,-0.2424,-0.2221,-0.2264,-0.2179,-0.2153,-0.2105,-0.2126,-0.2103,-0.2087,-0.2097,-0.2105,-0.2008,-0.2007,-0.2005,-0.2004,0,-0.1599,-0.1672,-0.173,-0.1811,-0.1881,-0.1942,-0.2026,-0.2029,-0.2158,-0.2282,-0.2218,-0.2185,-0.2134,-0.2092,-0.2032,-0.1982,-0.2138,-0.2051,-0.2062,-0.2081,-0.2068,-0.2059,-0.2074,-0.1986,-0.1989,-0.199,-0.1991,0,-0.1521,-0.1534,-0.1619,-0.1669,-0.1751,-0.1759,-0.1831,-0.1851,-0.1896,-0.2023,-0.1992,-0.2021,-0.2095,-0.1987,-0.1937,-0.1868,-0.1848,-0.1793,-0.1817,-0.1838,-0.1796,-0.1753,-0.1528,0,0,0,0,0,-0.1428,-0.1424,-0.1464,-0.1511,-0.1584,-0.1624,-0.1733,-0.1808,-0.1938,-0.1832,-0.1905,-0.1849,-0.1775,-0.18,-0.1683,-0.1858,-0.1862,-0.1718,-0.1814,-0.1886,-0.1907,-0.1877,0,0,0,0,0,0,-0.1368,-0.1401,-0.1408,-0.1357,-0.1355,-0.1411,-0.1467,-0.1562,-0.1518,-0.1656,-0.1614,-0.173,-0.1678,-0.1793,-0.1638,-0.1646,-0.1667,-0.1758,-0.1753,-0.1874,-0.1893,-0.191,-0.1886,0,0,0,0,0]},{"header":{"parameterUnit":"m.s-1","parameterCategory":2,"la1":30.2991,"la2":30.254,"lo1":-89.0895,"lo2":-89.0444,"dy":0.0017,"dx":0.0017,"nx":28,"ny":28,"refTime":"2025-11-06T03:00:00:Z","depth":"4","parameterNumber":3,"parameterNumberName":"V-component_of_CURRENTS"},"data":[0,0,0,0,0,0,0,0,0,0,0,0,0,0,0,0,0,0,0,0,0,0,0,0,0,0,0,0,0,0,0,0,0,0,0,0,0,0,0,0,0,0,0,0,0,0,0,0,0,0,0,0,0,0,0,0,0,0,-0.0287,-0.0286,0,-0.0234,-0.0233,-0.0233,-0.0192,-0.0192,-0.0192,-0.0191,-0.0086,-0.0083,-0.0081,0,0,0,0,0,0,0,0,0,0,0,0,0,-0.0299,-0.0299,-0.0287,-0.0286,-0.0286,-0.0234,-0.0233,-0.0233,-0.0192,-0.0192,-0.0192,-0.0191,-0.0087,-0.0084,-0.0081,0,0,0,0,0,0,0,0,0,0,0,0,0,-0.0274,-0.0299,-0.0287,-0.0261,-0.0258,-0.0234,-0.0233,-0.0232,-0.0192,-0.0192,-0.0191,-0.0191,-0.0088,-0.0084,-0.008,-0.0063,0,0,-0.0068,-0.0067,0,0,0,0,0,0,0,0,-0.0275,-0.0273,-0.0265,-0.0262,-0.0259,-0.0221,-0.0199,-0.0174,-0.0192,-0.0215,-0.0191,-0.0191,-0.0128,-0.012,-0.011,-0.0058,-0.0053,-0.0068,-0.0066,-0.0064,-0.0063,0,0,0,0,0,0,0,-0.0277,-0.0275,-0.0264,-0.0264,-0.0261,-0.0234,-0.023,-0.0194,-0.0172,-0.0213,-0.0211,-0.0208,-0.0125,-0.0113,-0.0107,-0.0052,-0.0068,-0.0065,-0.0062,-0.0061,0.0026,0.0026,0,0,0,0,0,0,-0.029,-0.0277,-0.0266,-0.0263,-0.0268,-0.0234,-0.023,-0.0232,-0.0173,-0.0165,-0.0208,-0.0206,-0.012,-0.0111,-0.0103,-0.0072,-0.0064,-0.006,-0.0058,0.0026,0.0026,0.0026,0,0,0,0,0,0,-0.0291,-0.029,-0.0268,-0.0269,-0.0265,-0.0235,-0.0237,-0.0231,-0.0222,-0.017,-0.016,-0.0206,-0.012,-0.0108,-0.0077,-0.0067,-0.0059,-0.0055,0.0026,0.0026,0.0026,-0.0014,0,0,0,0,0,0,-0.0291,-0.0291,-0.0298,-0.0271,-0.0265,-0.0261,-0.0238,-0.0231,-0.0222,-0.0218,-0.0165,-0.0154,-0.0118,-0.0083,-0.0073,-0.0062,-0.0052,0.0026,0.0026,0.0026,-0.0013,-0.0015,-0.0018,0,0,0,0,0,-0.0292,-0.0306,-0.0299,-0.0298,-0.0277,-0.0261,-0.0256,-0.0231,-0.0222,-0.0221,-0.0186,-0.0156,-0.0076,-0.008,-0.0068,-0.0056,0.0027,0.0026,0.0026,-0.0011,-0.0015,-0.0018,0,0,0,0,0,0,-0.0315,-0.0302,-0.0295,-0.0304,-0.0287,-0.0255,-0.0255,-0.0238,-0.021,-0.0208,-0.0158,-0.0145,-0.0115,-0.0083,-0.0089,-0.0032,-0.0019,-0.0017,-0.0052,-0.0054,-0.0057,-0.0068,-0.0049,0,0,0,0,0,-0.0326,-0.0332,-0.0311,-0.0319,-0.0314,-0.0286,-0.0278,-0.0262,-0.0234,-0.0222,-0.0185,-0.0144,-0.0106,-0.008,-0.0047,-0.0014,0.0022,0.0001,-0.0001,-0.0004,-0.0005,0.0058,0.0061,0.0026,0.0026,0.0026,0,0,-0.0337,-0.0331,-0.0335,-0.0324,-0.031,-0.0307,-0.028,-0.0274,-0.0264,-0.0214,-0.0192,-0.0156,-0.0103,-0.0068,-0.0051,-0.0039,0.0024,-0.0004,-0.0006,-0.0006,0.0058,0.0061,0.0064,0.0026,0.0026,0.0026,0,0,-0.0363,-0.0359,-0.0372,-0.0362,-0.0348,-0.0328,-0.033,-0.0302,-0.0284,-0.0261,-0.0221,-0.0179,-0.0129,-0.0079,-0.0049,-0.0045,0.0001,-0.0038,-0.0049,0.0012,0.0016,0.0019,0.0062,0.007,-0.0031,-0.0031,-0.0031,0,-0.0378,-0.0392,-0.0372,-0.038,-0.0377,-0.0342,-0.0352,-0.0325,-0.029,-0.0272,-0.0262,-0.0175,-0.0129,-0.007,-0.0068,-0.0048,-0.0018,-0.0041,0.0009,0.0014,0.0018,0.0061,0.0071,-0.0033,-0.0033,-0.0032,-0.0032,0,-0.0409,-0.0421,-0.0428,-0.0426,-0.0417,-0.0422,-0.0387,-0.0372,-0.0347,-0.0314,-0.0264,-0.02,-0.0145,-0.012,-0.0091,-0.0036,-0.0028,-0.0008,0.0016,0.0019,0.0064,0.0075,-0.0036,-0.0035,-0.0034,-0.0034,0,0,-0.0443,-0.045,-0.0454,-0.0466,-0.0445,-0.0445,-0.0426,-0.0396,-0.0384,-0.0331,-0.0302,-0.0223,-0.0186,-0.015,-0.0098,-0.004,0.002,-0.0017,-0.0013,0.0023,0.0138,0.0111,0.012,0.0044,0.0046,0.0047,0.0154,0,-0.0475,-0.051,-0.0496,-0.0521,-0.0537,-0.05,-0.0488,-0.0452,-0.0411,-0.0372,-0.0284,-0.0241,-0.0195,-0.0171,-0.0103,-0.0015,0.0045,-0.0012,0.0131,0.0136,0.011,0.013,0.0052,0.0162,0.0165,0.0166,0.0168,0,-0.0509,-0.053,-0.0569,-0.058,-0.0582,-0.0588,-0.0566,-0.0548,-0.0473,-0.0439,-0.0366,-0.0302,-0.0202,-0.0171,-0.0006,-0.0049,0.0037,0.0108,0.0115,0.0111,0.0128,0.0162,0.0187,0.0185,0.0184,0.0183,0.0181,0,-0.0552,-0.0579,-0.0617,-0.0622,-0.0624,-0.0632,-0.0626,-0.0574,-0.0559,-0.0479,-0.0455,-0.0331,-0.0268,-0.0142,0.0008,0.0001,0.0182,0.0198,0.0258,0.0257,0.0267,0.0263,0.0315,0.0314,0.0314,0.0314,0.0314,0,-0.0591,-0.0622,-0.0648,-0.0672,-0.0714,-0.0691,-0.0711,-0.0681,-0.0631,-0.0608,-0.0498,-0.0445,-0.0259,-0.0131,-0.0001,0.0156,0.0183,0.0259,0.0287,0.0246,0.0238,0.0274,0.0268,0.0318,0.0317,0.0316,0.0316,0,-0.0629,-0.0646,-0.0698,-0.0727,-0.0742,-0.0773,-0.0784,-0.0787,-0.0733,-0.0698,-0.0674,-0.052,-0.0352,-0.0169,0.0049,0.0138,0.0294,0.0344,0.0276,0.0298,0.033,0.032,0.0421,0.0421,0.0421,0.0421,0.0421,0,-0.065,-0.0683,-0.0752,-0.0794,-0.0815,-0.0856,-0.088,-0.0847,-0.0838,-0.0739,-0.0718,-0.0554,-0.0435,-0.0142,0.004,0.0285,0.0316,0.0384,0.0367,0.0325,0.0343,0.0334,0.0325,0.0421,0.0421,0.0421,0.0421,0,-0.0689,-0.072,-0.0764,-0.0856,-0.0907,-0.0951,-0.0975,-0.0975,-0.0916,-0.0874,-0.0734,-0.0568,-0.0376,-0.0144,0.0045,0.0219,0.0331,0.0385,0.0386,0.0371,0.0327,0.0342,0.0333,0.0421,0.0421,0.0421,0.0421,0,-0.0715,-0.0761,-0.0828,-0.09,-0.0973,-0.1015,-0.1026,-0.0991,-0.0965,-0.0842,-0.0798,-0.0575,-0.0435,-0.0178,-0.0005,0.0162,0.0203,0.0241,0.025,0.0252,0.0166,0.0082,0.0131,0,0,0,0,0,-0.0732,-0.0785,-0.0864,-0.0942,-0.1015,-0.1047,-0.107,-0.106,-0.1006,-0.0913,-0.0847,-0.0661,-0.0373,-0.0241,-0.0076,-0.0025,0.0209,0.0169,0.0252,0.0422,0.0422,0.0346,0,0,0,0,0,0,-0.0745,-0.0824,-0.0864,-0.0955,-0.101,-0.1075,-0.1089,-0.1056,-0.0987,-0.091,-0.0748,-0.0644,-0.036,-0.0462,-0.0077,-0.0027,0.0041,0.0313,0.0316,0.0422,0.0422,0.0422,0.0343,0,0,0,0,0]}]]